This demonstration page uses our WeatherBlox Daily Observations layout. Learn more.

Left ArrowRight Arrow

Hourly Observations for December 6, 2018

Temp ( °F °C ) Dew Point ( °F °C ) Humidity (%) Winds ( mph kmh ) Pressure ( in mb ) Visibility ( mi km ) Precip ( " mm )
12:57 am 00:57 Cloudy 28 -2.2 24 -4.4 85 85 NNE 15 24 30.26 1025 10 16 0.00 0.00
1:57 am 01:57 Windy with Snow Likely 28 -2.2 24 -4.4 85 85 N 22 35 30.28 1026 9 14 0.00 0.03
2:57 am 02:57 Cloudy with Light Snow 27 -2.8 23 -5 85 85 N 15 24 30.32 1027 9 14 0.00 0.03
3:57 am 03:57 Cloudy with Light Snow 26 -3.3 22 -5.6 84 84 N 15 24 30.34 1028 9 14 0.00 0.03
4:57 am 04:57 Cloudy 26 -3.3 21 -6.1 81 81 N 14 22 30.35 1028 10 16 0.00 0.03
5:57 am 05:57 Mostly Cloudy 25 -3.9 21 -6.1 85 85 N 12 19 30.38 1029 10 16 0.00 0.00
6:57 am 06:57 Clear 25 -3.9 21 -6.1 85 85 N 9 15 30.40 1030 10 16 0.00 0.00
7:57 am 07:57 Sunny 23 -5 20 -6.7 88 88 N 6 9 30.43 1031 10 16 0.00 0.00
8:57 am 08:57 Sunny 23 -5 19 -7.2 85 85 N 8 13 30.45 1031 10 16 0.00 0.00
9:57 am 09:57 Mostly Cloudy 23 -5 19 -7.2 85 85 N 12 19 30.47 1032 10 16 0.00 0.00
10:57 am 10:57 Cloudy 25 -3.9 20 -6.7 81 81 N 14 22 30.48 1032 10 16 0.00 0.00
11:57 am 11:57 Mostly Sunny 26 -3.3 20 -6.7 78 78 N 12 19 30.49 1033 10 16 0.00 0.00
12:24 pm 12:24 Mostly Cloudy 27 -3 21 -6 80 80 N 10 17 30.50 1033 10 16 0.00 0.00
12:57 pm 12:57 Cloudy 27 -2.8 20 -6.7 75 75 N 12 19 30.46 1032 10 16 0.00 0.00
1:57 pm 13:57 Cloudy 26 -3.3 19 -7.2 75 75 N 8 13 30.45 1031 10 16 0.00 0.00
2:57 pm 14:57 Cloudy 26 -3.3 19 -7.2 75 75 N 9 15 30.45 1031 10 16 0.00 0.00
3:57 pm 15:57 Cloudy 25 -3.9 18 -7.8 75 75 NNW 8 13 30.45 1031 10 16 0.00 0.00
4:57 pm 16:57 Cloudy 24 -4.4 18 -7.8 77 77 WNW 5 7 30.48 1032 10 16 0.00 0.00
5:57 pm 17:57 Cloudy 23 -5 17 -8.3 78 78 VRB 3 6 30.48 1032 10 16 0.00 0.00
6:13 pm 18:13 Partly Cloudy 21 -6 18 -8 86 86 NNW 3 6 30.53 1034 10 16 0.00 0.00
6:57 pm 18:57 Mostly Cloudy 21 -6.1 16 -8.9 81 81 W 5 7 30.48 1032 10 16 0.00 0.00
7:57 pm 19:57 Clear 20 -6.7 16 -8.9 85 85 Calm 30.49 1033 10 16 0.00 0.00
8:57 pm 20:57 Clear 18 -7.8 15 -9.4 88 88 Calm 30.50 1033 10 16 0.00 0.00
9:57 pm 21:57 Mostly Clear 15 -9.4 13 -10.6 91 91 N 3 6 30.49 1033 10 16 0.00 0.00
10:57 pm 22:57 Cloudy 15 -9.4 13 -10.6 91 91 Calm 30.48 1032 10 16 0.00 0.00
11:57 pm 23:57 Mostly Cloudy 15 -9.4 13 -10.6 91 91 Calm 30.48 1032 10 16 0.00 0.00

Powered by AerisWeather